Weather History for KTTF - January, 2014

Change the Weather History Date:

Wednesday, January 22, 2014

  Actual Average Record
Temperature  
Mean Temperature 2 °F -  
Max Temperature 10 °F 33 °F 65 °F (1933)
Min Temperature -7 °F 18 °F -16 °F (1984)
Degree Days  
Heating Degree Days 64    
Moisture  
Dew Point -1 °F    
Average Humidity 76    
Maximum Humidity 92    
Minimum Humidity 52    
Precipitation  
Precipitation 0.00 in - - ()
Sea Level Pressure  
Sea Level Pressure 30.03 in    
Wind  
Wind Speed 2 mph (SSW)    
Max Wind Speed 13 mph    
Max Gust Speed 17 mph    
Visibility 7 miles    
Events Snow    
Averages and records for this station are not official NWS values.
T = Trace of Precipitation, MM = Missing Value Source: NWS Daily Summary

Daily Weather History Graph

Daily Weather History Graph

Search for Another Location

Airport or City:

Trip Planner

Search our weather history database for the weather conditions in past years. The results will help you decide how hot, cold, wet, or windy it might be!

Date:

Astronomy

Jan. 22, 2014 Rise Set
Actual Time 7:55 AM EST 5:36 PM EST
Civil Twilight 7:24 AM EST 6:06 PM EST
Nautical Twilight 6:50 AM EST 6:40 PM EST
Astronomical Twilight 6:17 AM EST 7:13 PM EST
Moon No Moon Rise 10:49 AM EST (1/22)
Length of Visible Light 10h 41m
Length of Day
9h 41m
Waning Gibbous, 65% of the Moon is Illuminated
Jan 22
Waning Gibbous
Jan 24
Last Quarter
Jan 30
New
Feb 6
First Quarter
Feb 14
Full

Hourly Weather History & Observations

Time (EST) Temp. Windchill Dew Point Humidity Pressure Visibility Wind Dir Wind Speed Gust Speed Precip Events Conditions
12:14 AM -0.4 °F - -7.6 °F 72% 30.17 in 10.0 mi Calm Calm - N/A   Clear
12:34 AM -0.4 °F - -7.6 °F 72% 30.16 in 10.0 mi Calm Calm - N/A   Clear
12:54 AM -2.2 °F - -7.6 °F 78% 30.16 in 10.0 mi Calm Calm - N/A   Clear
1:14 AM -2.2 °F - -7.6 °F 78% 30.15 in 10.0 mi Calm Calm - N/A   Clear
1:34 AM -2.2 °F - -7.6 °F 78% 30.15 in 10.0 mi Calm Calm - N/A   Clear
1:54 AM -2.2 °F - -9.4 °F 71% 30.15 in 10.0 mi Calm Calm - N/A   Clear
2:14 AM -2.2 °F - -9.4 °F 71% 30.14 in 10.0 mi Calm Calm - N/A   Clear
2:34 AM -2.2 °F - -9.4 °F 71% 30.14 in 10.0 mi Calm Calm - N/A   Clear
2:54 AM -2.2 °F - -9.4 °F 71% 30.14 in 10.0 mi Calm Calm - N/A   Clear
3:14 AM -5.8 °F - -9.4 °F 84% 30.14 in 10.0 mi Calm Calm - N/A   Clear
3:34 AM -4.0 °F - -9.4 °F 78% 30.13 in 10.0 mi Calm Calm - N/A   Clear
3:54 AM -4.0 °F - -9.4 °F 78% 30.13 in 10.0 mi Calm Calm - N/A   Clear
4:15 AM -5.8 °F - -9.4 °F 84% 30.12 in 10.0 mi Calm Calm - N/A   Clear
4:35 AM -5.8 °F - -9.4 °F 84% 30.12 in 10.0 mi Calm Calm - N/A   Clear
4:55 AM -5.8 °F - -9.4 °F 84% 30.12 in 10.0 mi Calm Calm - N/A   Clear
5:15 AM -7.6 °F - -11.2 °F 84% 30.12 in 10.0 mi Calm Calm - N/A   Clear
5:35 AM -5.8 °F - -9.4 °F 84% 30.11 in 10.0 mi Calm Calm - N/A   Clear
5:55 AM -5.8 °F - -9.4 °F 84% 30.11 in 10.0 mi Calm Calm - N/A   Scattered Clouds
6:15 AM -5.8 °F - -9.4 °F 84% 30.11 in 10.0 mi Calm Calm - N/A   Scattered Clouds
6:35 AM -4.0 °F - -9.4 °F 78% 30.10 in 10.0 mi Calm Calm - N/A   Overcast
6:55 AM -4.0 °F - -9.4 °F 78% 30.10 in 10.0 mi Calm Calm - N/A   Overcast
7:16 AM -4.0 °F - -9.4 °F 78% 30.10 in 10.0 mi Calm Calm - N/A   Overcast
7:36 AM -2.2 °F - -7.6 °F 78% 30.09 in 10.0 mi Calm Calm - N/A   Overcast
7:56 AM -2.2 °F - -7.6 °F 78% 30.09 in 10.0 mi Calm Calm - N/A   Overcast
8:16 AM -0.4 °F - -7.6 °F 72% 30.09 in 10.0 mi Calm Calm - N/A   Overcast
8:36 AM -0.4 °F - -5.8 °F 78% 30.08 in 10.0 mi Calm Calm - N/A   Overcast
8:56 AM 1.4 °F - -5.8 °F 72% 30.08 in 10.0 mi Calm Calm - N/A   Overcast
9:16 AM 3.2 °F - -5.8 °F 66% 30.08 in 10.0 mi Calm Calm - N/A   Overcast
9:36 AM 5.0 °F - -5.8 °F 61% 30.08 in 10.0 mi Calm Calm - N/A   Overcast
9:57 AM 6.8 °F - -4.0 °F 61% 30.08 in 10.0 mi Calm Calm - N/A   Overcast
10:17 AM 6.8 °F - -4.0 °F 61% 30.07 in 10.0 mi Calm Calm - N/A   Scattered Clouds
10:32 AM 6.8 °F -6.9 °F -5.8 °F 56% 30.07 in 10.0 mi South 9.2 mph - N/A   Clear
10:52 AM 8.6 °F -7.0 °F -4.0 °F 57% 30.06 in 10.0 mi South 12.7 mph - N/A   Clear
11:12 AM 8.6 °F -4.7 °F -5.8 °F 52% 30.07 in 10.0 mi SSW 9.2 mph - N/A   Scattered Clouds
11:32 AM 8.6 °F -6.3 °F -5.8 °F 52% 30.06 in 10.0 mi SSW 11.5 mph - N/A   Mostly Cloudy
11:52 AM 8.6 °F -1.3 °F -4.0 °F 57% 30.04 in 10.0 mi South 5.8 mph - N/A   Scattered Clouds
12:12 PM 8.6 °F -5.5 °F -4.0 °F 57% 30.03 in 10.0 mi SSW 10.4 mph - N/A   Clear
12:32 PM 10.4 °F -2.4 °F -4.0 °F 52% 30.02 in 10.0 mi SSW 9.2 mph - N/A   Mostly Cloudy
12:52 PM 10.4 °F -3.3 °F -4.0 °F 52% 30.01 in 10.0 mi SW 10.4 mph - N/A   Overcast
1:12 PM 10.4 °F 0.8 °F -2.2 °F 57% 30.00 in 10.0 mi SSW 5.8 mph - N/A   Mostly Cloudy
1:32 PM 10.4 °F - -2.2 °F 57% 29.99 in 10.0 mi Calm Calm - N/A   Mostly Cloudy
1:52 PM 10.4 °F -2.4 °F -0.4 °F 62% 29.97 in 7.0 mi SW 9.2 mph - N/A   Overcast
2:13 PM 10.4 °F -3.3 °F 1.4 °F 67% 29.97 in 2.5 mi SW 10.4 mph - N/A Snow Light Snow
2:33 PM 10.4 °F - 3.2 °F 73% 29.96 in 2.5 mi Calm Calm - N/A Snow Light Snow
2:53 PM 10.4 °F -3.3 °F 3.2 °F 73% 29.96 in 3.0 mi South 10.4 mph - N/A Snow Light Snow
3:13 PM 10.4 °F -2.4 °F 3.2 °F 73% 29.95 in 3.0 mi South 9.2 mph - N/A Snow Light Snow
3:33 PM 10.4 °F -3.3 °F 5.0 °F 79% 29.95 in 3.0 mi South 10.4 mph - N/A Snow Light Snow
3:53 PM 10.4 °F -4.1 °F 5.0 °F 79% 29.95 in 3.0 mi South 11.5 mph 16.1 mph N/A Snow Light Snow
4:13 PM 10.4 °F -2.4 °F 6.8 °F 85% 29.95 in 2.5 mi SSW 9.2 mph - N/A Snow Light Snow
4:34 PM 10.4 °F -4.1 °F 6.8 °F 85% 29.95 in 3.0 mi SSW 11.5 mph - N/A Snow Light Snow
4:54 PM 10.4 °F -4.8 °F 6.8 °F 85% 29.95 in 2.5 mi South 12.7 mph 17.3 mph N/A Snow Light Snow
5:14 PM 10.4 °F -4.8 °F 5.0 °F 79% 29.95 in 4.0 mi South 12.7 mph - N/A Snow Light Snow
5:34 PM 10.4 °F -4.1 °F 6.8 °F 85% 29.95 in 3.0 mi SSW 11.5 mph - N/A Snow Light Snow
5:54 PM 10.4 °F -3.3 °F 6.8 °F 85% 29.95 in 5.0 mi South 10.4 mph - N/A Snow Light Snow
6:14 PM 10.4 °F -3.3 °F 6.8 °F 85% 29.95 in 3.0 mi South 10.4 mph - N/A Snow Light Snow
6:34 PM 10.4 °F - 6.8 °F 85% 29.95 in 2.5 mi Calm Calm - N/A Snow Light Snow
6:54 PM 10.4 °F -1.5 °F 6.8 °F 85% 29.95 in 3.0 mi South 8.1 mph - N/A Snow Light Snow
7:14 PM 10.4 °F - 6.8 °F 85% 29.95 in 4.0 mi Calm Calm - N/A Snow Light Snow
7:34 PM 10.4 °F 0.8 °F 6.8 °F 85% 29.95 in 3.0 mi South 5.8 mph - N/A Snow Light Snow
7:54 PM 10.4 °F 0.8 °F 6.8 °F 85% 29.94 in 4.0 mi South 5.8 mph - N/A Snow Light Snow
8:15 PM 10.4 °F - 6.8 °F 85% 29.95 in 4.0 mi Calm Calm - N/A Snow Light Snow
8:35 PM 10.4 °F - 8.6 °F 92% 29.94 in 2.5 mi Calm Calm - N/A Snow Light Snow
8:55 PM 10.4 °F - 6.8 °F 85% 29.94 in 1.2 mi Calm Calm - N/A Snow Light Snow
9:15 PM 10.4 °F -2.4 °F 6.8 °F 85% 29.94 in 3.0 mi SSW 9.2 mph - N/A Snow Light Snow
9:35 PM 10.4 °F - 8.6 °F 92% 29.93 in 3.0 mi Calm Calm - N/A Snow Light Snow
9:55 PM 10.4 °F - 8.6 °F 92% 29.93 in 3.0 mi Calm Calm - N/A Snow Light Snow
10:15 PM 10.4 °F - 6.8 °F 85% 29.93 in 7.0 mi Calm Calm - N/A Snow Light Snow
10:35 PM 10.4 °F - 6.8 °F 85% 29.93 in 7.0 mi Calm Calm - N/A Snow Light Snow
10:55 PM 8.6 °F - 6.8 °F 92% 29.93 in 3.0 mi Calm Calm - N/A Snow Light Snow
11:16 PM 10.4 °F - 6.8 °F 85% 29.93 in 3.0 mi Calm Calm - N/A Snow Light Snow
11:36 PM 10.4 °F - 8.6 °F 92% 29.93 in 2.0 mi Calm Calm - N/A Snow Light Snow
11:56 PM 10.4 °F - 8.6 °F 92% 29.93 in 2.0 mi Calm Calm - N/A Snow Light Snow